User: anonymous   Login
Location: Unspecified
(0.0000°N, 0.0000°E)
Time: 22:31:16
(UTC+00:00)
Language:

DELFI C3 - Orbit

View from above orbital plane
View from above orbital plane
View from above satellite
View from above satellite

Ground track
Ground track

The orbit data is extracted from the following two-line orbital elements,

1 32789U 08021G   18174.68938747 +.00001550 +00000-0 +11012-3 0  9992
2 32789 097.5117 229.3346 0010699 275.8941 084.1067 15.06105776552669
Epoch (UTC): 23 June 2018 16:32:43
Eccentricity: 0.0010699
inclination: 97.5117°
perigee height: 541 km
apogee height: 555 km
right ascension of ascending node: 229.3346°
argument of perigee: 275.8941°
revolutions per day: 15.06105776
mean anomaly at epoch: 84.1067°
orbit number at epoch: 55266

The dashed part of the orbit path shows where the satellite is in the earth's shadow,  

DLR